Location: Detroit
(42.3310°N, 83.0460°W)
Time: 23:52:38
(UTC-04:00)

A-11 Canister half - Pass Details

Date: 10 February 2023
Orbit: 1526 x 1682 km, 47.3° (Epoch: 20 March)

Event Time Altitude Azimuth Distance (km) Brightness Sun altitude
Rises 05:15:10 0° 247° (WSW) 4,689 - -26.4°
Reaches altitude 10° 05:18:13 10° 248° (WSW) 3,698 - -25.8°
Exits shadow 05:23:33 40° 251° (WSW) 2,112 9.2 -24.9°
Maximum altitude 05:27:33 85° 337° (NNW) 1,535 8.9 -24.1°
Drops below altitude 10° 05:36:57 10° 67° (ENE) 3,719 12.0 -22.4°
Sets 05:40:02 0° 68° (ENE) 4,717 12.8 -21.8°
